N6494P OMRK-OMSJ

Flight info

Callsign N6494P
Flight time N/A
Altitude 4000
Route COASTY COASTLINE
Aircraft PA24/L-SDGRY/S

Departure

Time 2026-04-22 17:03
Airport Ras Al Khaimah International Airport (OMRK)

Arrival

Time N/A
Airport Sharjah International Airport (OMSJ)
Time Latitude Longitude Altitude Speed Heading
2026-04-22 16:41 25.61578 55.94028 71 ft 0 kts 256°
2026-04-22 16:55 25.61578 55.94027 71 ft 0 kts 256°
2026-04-22 16:55 25.61569 55.94021 77 ft 5 kts 151°
2026-04-22 16:56 25.61569 55.94064 77 ft 7 kts 86°
2026-04-22 16:56 25.61530 55.94108 78 ft 15 kts 190°
2026-04-22 16:56 25.61476 55.94031 78 ft 16 kts 253°
2026-04-22 16:56 25.61465 55.93979 78 ft 0 kts 339°
2026-04-22 16:58 25.61466 55.93978 78 ft 1 kts 327°
2026-04-22 16:59 25.61447 55.93921 80 ft 12 kts 256°
2026-04-22 16:59 25.61446 55.93914 80 ft 0 kts 253°
2026-04-22 17:01 25.61433 55.93854 81 ft 7 kts 284°
2026-04-22 17:01 25.61440 55.93846 81 ft 0 kts 341°
2026-04-22 17:01 25.61441 55.93846 81 ft 0 kts 341°
2026-04-22 17:02 25.61532 55.93817 81 ft 48 kts 341°
2026-04-22 17:02 25.62023 55.93664 155 ft 89 kts 345°
2026-04-22 17:02 25.62651 55.93465 420 ft 95 kts 345°
2026-04-22 17:02 25.63212 55.93092 688 ft 96 kts 316°
2026-04-22 17:03 25.63665 55.92543 900 ft 97 kts 302°
2026-04-22 17:03 25.63924 55.91847 1109 ft 98 kts 290°
2026-04-22 17:03 25.64167 55.91137 1304 ft 101 kts 294°
2026-04-22 17:03 25.64512 55.90442 1501 ft 105 kts 301°
2026-04-22 17:04 25.64889 55.89713 1673 ft 111 kts 299°
2026-04-22 17:04 25.65269 55.88982 1873 ft 110 kts 300°
2026-04-22 17:04 25.65708 55.88241 1960 ft 119 kts 303°
2026-04-22 17:04 25.66124 55.87424 2085 ft 124 kts 284°
2026-04-22 17:05 25.66085 55.86462 2183 ft 124 kts 246°
2026-04-22 17:05 25.65685 55.85681 2414 ft 112 kts 231°
2026-04-22 17:05 25.65232 55.84974 2521 ft 112 kts 227°
2026-04-22 17:05 25.64715 55.84363 2674 ft 108 kts 219°
2026-04-22 17:06 25.64162 55.83776 2746 ft 114 kts 221°
2026-04-22 17:06 25.63590 55.83155 2811 ft 119 kts 221°
2026-04-22 17:06 25.62974 55.82526 2854 ft 121 kts 220°
2026-04-22 17:06 25.62370 55.81863 2875 ft 128 kts 222°
2026-04-22 17:07 25.61708 55.81179 2948 ft 128 kts 219°
2026-04-22 17:07 25.61020 55.80493 2854 ft 140 kts 220°
2026-04-22 17:07 25.60289 55.79801 2903 ft 134 kts 219°
2026-04-22 17:07 25.59586 55.79124 2948 ft 132 kts 219°
2026-04-22 17:08 25.58916 55.78484 3041 ft 126 kts 219°
2026-04-22 17:08 25.58232 55.77849 3036 ft 130 kts 219°
2026-04-22 17:08 25.57530 55.77205 3041 ft 132 kts 219°
2026-04-22 17:08 25.56732 55.76722 3025 ft 134 kts 188°
2026-04-22 17:09 25.55846 55.76969 3024 ft 136 kts 147°
2026-04-22 17:09 25.55335 55.77842 3023 ft 140 kts 107°
2026-04-22 17:09 25.55340 55.78560 3026 ft 143 kts 80°
2026-04-22 17:09 25.56137 55.79680 3030 ft 143 kts 28°
2026-04-22 17:10 25.57048 55.80093 3032 ft 141 kts 21°
2026-04-22 17:10 25.57975 55.80472 3033 ft 144 kts 20°
2026-04-22 17:10 25.58943 55.80651 3035 ft 142 kts 351°
2026-04-22 17:10 25.59814 55.80168 3037 ft 141 kts 311°
2026-04-22 17:11 25.60224 55.79213 3041 ft 139 kts 272°
2026-04-22 17:11 25.60033 55.78194 3040 ft 134 kts 244°
2026-04-22 17:11 25.59542 55.77346 3026 ft 132 kts 217°
2026-04-22 17:11 25.58727 55.76905 3033 ft 130 kts 202°
2026-04-22 17:12 25.57867 55.76645 3019 ft 129 kts 181°
2026-04-22 17:12 25.57037 55.76981 3020 ft 130 kts 143°
2026-04-22 17:12 25.56590 55.77846 3021 ft 134 kts 104°
2026-04-22 17:12 25.56732 55.78859 3029 ft 137 kts 65°
2026-04-22 17:13 25.57397 55.79599 3032 ft 137 kts 34°
2026-04-22 17:13 25.58201 55.80164 3032 ft 141 kts 32°
2026-04-22 17:13 25.59056 55.80692 3035 ft 141 kts 20°
2026-04-22 17:13 25.60032 55.80700 3038 ft 144 kts 340°
2026-04-22 17:14 25.60810 55.80054 3040 ft 140 kts 301°
2026-04-22 17:14 25.61055 55.79043 3040 ft 136 kts 264°
2026-04-22 17:14 25.60964 55.78005 3039 ft 134 kts 260°
2026-04-22 17:14 25.60841 55.76990 3029 ft 132 kts 259°
2026-04-22 17:15 25.60737 55.76302 2958 ft 137 kts 253°
2026-04-22 17:15 25.59857 55.75223 2678 ft 147 kts 206°
2026-04-22 17:15 25.59017 55.74765 2868 ft 128 kts 206°
2026-04-22 17:15 25.58171 55.74308 2650 ft 143 kts 206°
2026-04-22 17:16 25.57292 55.73833 2680 ft 134 kts 205°
2026-04-22 17:16 25.56439 55.73370 2635 ft 137 kts 205°
2026-04-22 17:16 25.54875 55.72526 2564 ft 134 kts 205°
2026-04-22 17:17 25.54037 55.72077 2475 ft 138 kts 206°
2026-04-22 17:17 25.53181 55.71596 2441 ft 137 kts 206°
2026-04-22 17:17 25.52343 55.71110 2394 ft 136 kts 206°
2026-04-22 17:17 25.51498 55.70614 2339 ft 138 kts 206°
2026-04-22 17:18 25.50652 55.70118 2318 ft 138 kts 206°
2026-04-22 17:18 25.49806 55.69618 2276 ft 138 kts 206°
2026-04-22 17:18 25.48964 55.69119 2244 ft 137 kts 206°
2026-04-22 17:18 25.48123 55.68622 2209 ft 137 kts 206°
2026-04-22 17:19 25.46339 55.67574 2125 ft 139 kts 206°
2026-04-22 17:19 25.44795 55.66264 2043 ft 139 kts 218°
2026-04-22 17:20 25.43239 55.64823 1635 ft 155 kts 218°
2026-04-22 17:20 25.41605 55.63251 1104 ft 163 kts 220°
2026-04-22 17:21 25.40817 55.62387 963 ft 155 kts 222°
2026-04-22 17:21 25.39427 55.60846 969 ft 131 kts 221°
2026-04-22 17:22 25.38152 55.59495 962 ft 124 kts 221°
2026-04-22 17:22 25.37543 55.58856 982 ft 121 kts 221°
2026-04-22 17:22 25.36337 55.57590 985 ft 120 kts 221°
2026-04-22 17:23 25.35721 55.56948 984 ft 123 kts 221°
2026-04-22 17:23 25.34697 55.55462 988 ft 126 kts 253°
2026-04-22 17:23 25.34497 55.54504 983 ft 129 kts 256°
2026-04-22 17:24 25.34304 55.53538 987 ft 129 kts 256°
2026-04-22 17:24 25.34109 55.52571 947 ft 133 kts 241°
2026-04-22 17:24 25.33322 55.52203 834 ft 136 kts 159°
2026-04-22 17:24 25.32762 55.52985 856 ft 124 kts 116°
2026-04-22 17:25 25.32462 55.53808 862 ft 115 kts 109°
2026-04-22 17:25 25.32226 55.54669 802 ft 116 kts 105°
2026-04-22 17:25 25.32024 55.55520 792 ft 111 kts 103°
2026-04-22 17:25 25.31766 55.56274 834 ft 99 kts 135°
2026-04-22 17:26 25.31133 55.56467 790 ft 104 kts 189°
2026-04-22 17:26 25.30619 55.55980 785 ft 101 kts 251°
2026-04-22 17:26 25.30766 55.55248 685 ft 103 kts 309°
2026-04-22 17:26 25.31272 55.54690 580 ft 103 kts 315°
2026-04-22 17:27 25.31569 55.54287 454 ft 99 kts 309°
2026-04-22 17:27 25.32093 55.53518 228 ft 91 kts 302°
2026-04-22 17:27 25.32415 55.52944 117 ft 83 kts 304°
2026-04-22 17:27 25.32704 55.52460 92 ft 69 kts 303°
2026-04-22 17:28 25.32944 55.52026 87 ft 70 kts 302°
2026-04-22 17:28 25.33239 55.51495 221 ft 87 kts 300°
2026-04-22 17:28 25.33551 55.50898 448 ft 91 kts 302°
2026-04-22 17:28 25.33880 55.50276 627 ft 99 kts 303°
2026-04-22 17:29 25.34355 55.49715 742 ft 112 kts 342°
2026-04-22 17:29 25.35073 55.49900 919 ft 109 kts 47°
2026-04-22 17:29 25.35269 55.50716 941 ft 117 kts 98°
2026-04-22 17:29 25.34949 55.51532 977 ft 121 kts 116°
2026-04-22 17:30 25.34512 55.52349 975 ft 125 kts 121°
2026-04-22 17:30 25.34041 55.53147 1010 ft 122 kts 123°
2026-04-22 17:30 25.33583 55.53939 1022 ft 122 kts 122°
2026-04-22 17:30 25.33069 55.54696 934 ft 126 kts 127°
2026-04-22 17:31 25.32533 55.55502 817 ft 130 kts 128°
2026-04-22 17:31 25.31905 55.56178 775 ft 125 kts 154°
2026-04-22 17:31 25.31081 55.56154 624 ft 118 kts 206°
2026-04-22 17:31 25.30700 55.55511 565 ft 100 kts 270°
2026-04-22 17:32 25.31052 55.54871 414 ft 99 kts 319°
2026-04-22 17:32 25.31516 55.54361 335 ft 90 kts 314°
2026-04-22 17:32 25.31911 55.53812 245 ft 92 kts 306°
2026-04-22 17:32 25.32260 55.53223 161 ft 92 kts 302°
2026-04-22 17:33 25.32479 55.52833 139 ft 87 kts 303°
2026-04-22 17:33 25.32884 55.52106 221 ft 86 kts 301°
2026-04-22 17:33 25.33225 55.51493 350 ft 103 kts 305°
2026-04-22 17:33 25.33649 55.50822 485 ft 116 kts 306°
2026-04-22 17:34 25.34102 55.50073 717 ft 111 kts 306°
2026-04-22 17:34 25.34602 55.49358 751 ft 124 kts 326°
2026-04-22 17:34 25.35164 55.49186 780 ft 125 kts
2026-04-22 17:34 25.35990 55.49953 876 ft 127 kts 68°
2026-04-22 17:35 25.36090 55.50599 912 ft 127 kts 84°
2026-04-22 17:35 25.36326 55.51553 890 ft 134 kts 61°
2026-04-22 17:35 25.36812 55.52433 977 ft 132 kts 58°
2026-04-22 17:35 25.37328 55.53315 948 ft 140 kts 58°
2026-04-22 17:36 25.37850 55.54182 1017 ft 134 kts 59°
2026-04-22 17:36 25.38379 55.55072 927 ft 140 kts 59°
2026-04-22 17:36 25.38898 55.55980 905 ft 138 kts 60°
2026-04-22 17:36 25.39393 55.56868 964 ft 132 kts 60°
2026-04-22 17:37 25.39869 55.57717 1022 ft 126 kts 60°
2026-04-22 17:37 25.40323 55.58544 1057 ft 125 kts 60°
2026-04-22 17:37 25.40787 55.59374 1050 ft 127 kts 60°
2026-04-22 17:37 25.41250 55.60218 1055 ft 129 kts 61°
2026-04-22 17:38 25.41724 55.61066 1055 ft 129 kts 61°
2026-04-22 17:38 25.42199 55.61911 1058 ft 129 kts 61°
2026-04-22 17:38 25.42680 55.62762 1061 ft 131 kts 61°
2026-04-22 17:38 25.43167 55.63624 1065 ft 132 kts 61°
2026-04-22 17:39 25.43649 55.64478 1062 ft 133 kts 61°
2026-04-22 17:39 25.44143 55.65348 1061 ft 133 kts 61°
2026-04-22 17:39 25.45103 55.67125 1054 ft 134 kts 61°
2026-04-22 17:40 25.45579 55.68010 1057 ft 133 kts 61°
2026-04-22 17:40 25.46052 55.68894 1060 ft 134 kts 61°
2026-04-22 17:40 25.46535 55.69777 1060 ft 134 kts 61°
2026-04-22 17:40 25.47023 55.70655 1061 ft 134 kts 61°
2026-04-22 17:41 25.47510 55.71530 1059 ft 134 kts 61°
2026-04-22 17:41 25.47989 55.72407 1059 ft 133 kts 61°
2026-04-22 17:41 25.48475 55.73279 1059 ft 133 kts 61°
2026-04-22 17:41 25.48967 55.74148 1058 ft 133 kts 61°
2026-04-22 17:42 25.49448 55.75007 1056 ft 133 kts 61°
2026-04-22 17:42 25.49927 55.75884 1056 ft 133 kts 61°
2026-04-22 17:42 25.50404 55.76762 1056 ft 133 kts 61°
2026-04-22 17:42 25.50887 55.77636 1058 ft 132 kts 61°
2026-04-22 17:43 25.51369 55.78505 1097 ft 132 kts 61°
2026-04-22 17:43 25.51838 55.79397 1076 ft 135 kts 61°
2026-04-22 17:43 25.52300 55.80306 1069 ft 135 kts 61°
2026-04-22 17:43 25.52762 55.81212 1067 ft 135 kts 61°
2026-04-22 17:44 25.53223 55.82116 1065 ft 135 kts 61°
2026-04-22 17:44 25.53683 55.83015 1065 ft 134 kts 61°
2026-04-22 17:44 25.54140 55.83909 1065 ft 133 kts 61°
2026-04-22 17:44 25.54595 55.84802 1064 ft 133 kts 61°
2026-04-22 17:45 25.55051 55.85700 1065 ft 134 kts 61°
2026-04-22 17:45 25.55508 55.86596 1065 ft 134 kts 61°
2026-04-22 17:45 25.55965 55.87490 1067 ft 133 kts 61°
2026-04-22 17:45 25.56417 55.88373 1067 ft 134 kts 61°
2026-04-22 17:46 25.56875 55.89266 1070 ft 132 kts 61°
2026-04-22 17:46 25.57318 55.90118 939 ft 126 kts 63°
2026-04-22 17:46 25.57632 55.90955 769 ft 113 kts 73°
2026-04-22 17:46 25.57860 55.91763 691 ft 108 kts 71°
2026-04-22 17:47 25.58217 55.92492 542 ft 106 kts 60°
2026-04-22 17:47 25.58569 55.93191 431 ft 99 kts 60°
2026-04-22 17:47 25.58915 55.93762 323 ft 83 kts 59°
2026-04-22 17:47 25.59248 55.94292 286 ft 81 kts 40°
2026-04-22 17:48 25.59787 55.94340 187 ft 84 kts 349°
2026-04-22 17:48 25.60342 55.94181 94 ft 78 kts 349°
2026-04-22 17:48 25.60771 55.94051 75 ft 50 kts 346°
2026-04-22 17:48 25.61037 55.93974 74 ft 31 kts 344°
2026-04-22 17:49 25.61217 55.93916 72 ft 27 kts 343°
2026-04-22 17:49 25.61392 55.93870 73 ft 10 kts 352°
2026-04-22 17:49 25.61449 55.93931 72 ft 17 kts 73°
2026-04-22 17:49 25.61485 55.94067 72 ft 14 kts 68°
2026-04-22 17:50 25.61560 55.94099 72 ft 12 kts 344°
2026-04-22 17:50 25.61632 55.94066 72 ft 9 kts 260°
2026-04-22 17:50 25.61616 55.94014 72 ft 0 kts 256°